パンスターズ彗星

C/2021 J2 ( PanSTARRS )

English version
Home page
Updated on January 4, 2024

---------------------------------------------------------------------

・ プロフィール

発見日 2021年5月10日
発見光度 22.0等
発見者 Pan-STARRS 1 telescope (Haleakala)

・ 軌道要素

Epoch 2023 Sept. 13.0 TT = JDT 2460200.5
T 2021 Sept. 22.05984 TT                                Rudenko
q   4.7041593            (2000.0)            P               Q
z  +0.0085544      Peri.  172.00091     -0.85882207     -0.48672205
 +/-0.0000035      Node    23.33611     -0.48949858     +0.87166798
e   0.9597588      Incl.  156.21336     -0.15104900     -0.05741582
>From 217 observations 2021 Mar. 25-2023 May 15, mean residual 0".5.

・ 光度変化

        m1 = 2.2 + 5 logΔ + 20.0 log r(t - 350)

---------------------------------------------------------------------

軌道要素はM.P.E.C. 2023-X256に掲載されたものです。
光度グラフはComet for Windowsで作成したものです。

---------------------------------------------------------------------

Copyright(C) Seiichi Yoshida (comet@aerith.net). All rights reserved.